Weather History for Andrews, NC

Change the Weather History Date:

Wednesday, January 1, 2003

  Actual Average (KTYS) Record (KTYS)
Temperature  
Mean Temperature 54 °F 38 °F  
Max Temperature 59 °F 47 °F 75 °F (1952)
Min Temperature 48 °F 30 °F 2 °F (1928)
Degree Days  
Heating Degree Days 12 27  
Month to date heating degree days 27  
Since 1 July heating degree days 1460  
Cooling Degree Days 0 0  
Month to date cooling degree days 0  
Year to date cooling degree days 0  
Growing Degree Days 4 (Base 50)    
Moisture  
Dew Point 49 °F    
Average Humidity 89    
Maximum Humidity 100    
Minimum Humidity 72    
Precipitation  
Precipitation 0.53 in 0.13 in 1.97 in (2011)
Month to date precipitation 0.13  
Year to date precipitation 0.13  
Snow  
Snow 0.00 in 0.10 in - ()
Month to date snowfall 0.1  
Since 1 July snowfall 0.9  
Snow Depth -    
Sea Level Pressure  
Sea Level Pressure 29.72 in    
Wind  
Wind Speed 4 mph (WSW)    
Max Wind Speed 13 mph    
Max Gust Speed 20 mph    
Visibility 8 miles    
Events Rain    
T = Trace of Precipitation, MM = Missing Value Source: NWS Daily Summary

Daily Weather History Graph

Daily Weather History Graph

Search for Another Location

Airport:

Trip Planner

Search our weather history database for the weather conditions in past years. The results will help you decide how hot, cold, wet, or windy it might be!

Date:

Astronomy

Jan. 01, 2003 Rise Set
Actual Time 7:43 AM EST 5:34 PM EST
Civil Twilight 7:15 AM EST 6:02 PM EST
Nautical Twilight 6:44 AM EST 6:33 PM EST
Astronomical Twilight 6:13 AM EST 7:04 PM EST
Moon 6:37 AM EST (1/1) 4:26 PM EST (1/1)
Length of Visible Light 10h 46m
Length of Day
9h 50m
Waning Crescent, 2% of the Moon is Illuminated
Jan 1
Waning Crescent
Jan 2
New
Jan 10
First Quarter
Jan 18
Full
Jan 25
Last Quarter

Hourly Weather History & Observations

Time (EST) Temp. Dew Point Humidity Pressure Visibility Wind Dir Wind Speed Gust Speed Precip Events Conditions
12:23 AM 59.0 °F 50.0 °F 72% 29.71 in 10.0 mi South 12.7 mph 19.6 mph N/A   Overcast
12:39 AM 59.0 °F 50.0 °F 72% 29.70 in 10.0 mi SSW 6.9 mph 16.1 mph N/A Rain Rain
12:59 AM 57.2 °F 50.0 °F 77% 29.70 in 7.0 mi Calm Calm - 0.02 in Rain Rain
1:19 AM 57.2 °F 51.8 °F 82% 29.68 in 10.0 mi South 5.8 mph - 0.02 in Rain Light Rain
1:41 AM 55.4 °F 51.8 °F 88% 29.67 in 10.0 mi Calm Calm - 0.02 in Rain Light Rain
2:01 AM 55.4 °F 51.8 °F 88% 29.67 in 5.0 mi Calm Calm - 0.01 in Rain Rain
2:20 AM 55.4 °F 53.6 °F 94% 29.67 in 10.0 mi SSW 4.6 mph - 0.05 in Rain Light Rain
2:40 AM 55.4 °F 51.8 °F 88% 29.66 in 5.0 mi West 5.8 mph - 0.09 in Rain Rain
2:59 AM 55.4 °F 53.6 °F 94% 29.66 in 5.0 mi WNW 5.8 mph - 0.03 in Rain Heavy Rain
3:19 AM 55.4 °F 51.8 °F 88% 29.66 in 7.0 mi West 8.1 mph - 0.06 in Rain Heavy Rain
3:43 AM 55.4 °F 51.8 °F 88% 29.68 in 5.0 mi WSW 8.1 mph - 0.17 in Rain Rain
3:59 AM 55.4 °F 50.0 °F 82% 29.67 in 7.0 mi West 10.4 mph - 0.01 in Rain Rain
4:19 AM 53.6 °F 51.8 °F 94% 29.67 in 10.0 mi West 4.6 mph - 0.04 in Rain Light Rain
4:39 AM 53.6 °F 50.0 °F 88% 29.66 in 10.0 mi Calm Calm - 0.04 in Rain Light Rain
4:59 AM 51.8 °F 50.0 °F 94% 29.65 in 10.0 mi Calm Calm - N/A   Overcast
5:19 AM 51.8 °F 50.0 °F 94% 29.64 in 10.0 mi Calm Calm - N/A Rain Light Rain
5:39 AM 51.8 °F 50.0 °F 94% 29.64 in 5.0 mi East 3.5 mph - N/A   Overcast
6:00 AM 50.0 °F 48.2 °F 94% 29.65 in 7.0 mi Calm Calm - N/A   Overcast
6:39 AM 48.2 °F 46.4 °F 93% 29.64 in 0.8 mi Calm Calm - N/A   Overcast
7:01 AM 48.2 °F 48.2 °F 100% 29.64 in 2.5 mi Calm Calm - N/A   Overcast
7:19 AM 48.2 °F 46.4 °F 93% 29.65 in 2.5 mi WNW 3.5 mph - N/A   Overcast
7:41 AM 50.0 °F 48.2 °F 94% 29.65 in 2.0 mi WSW 6.9 mph - N/A   Drizzle
8:21 AM 51.8 °F 51.8 °F 100% 29.67 in 5.0 mi WSW 4.6 mph - 0.03 in Rain Light Rain
8:39 AM 51.8 °F 51.8 °F 100% 29.67 in 3.0 mi West 5.8 mph - 0.09 in Rain Rain
9:19 AM 51.8 °F 50.0 °F 94% 29.69 in 10.0 mi West 3.5 mph - 0.01 in   Overcast
9:43 AM 51.8 °F 50.0 °F 94% 29.69 in 10.0 mi Calm Calm - 0.01 in   Overcast
10:19 AM 51.8 °F 50.0 °F 94% 29.70 in 7.0 mi WSW 3.5 mph - N/A Rain Rain
10:39 AM 51.8 °F 50.0 °F 94% 29.70 in 4.0 mi West 4.6 mph - 0.02 in Rain Light Rain
11:01 AM 51.8 °F 50.0 °F 94% 29.70 in 2.5 mi West 5.8 mph - 0.01 in Rain Light Rain
11:19 AM 51.8 °F 50.0 °F 94% 29.70 in 3.0 mi West 5.8 mph - 0.05 in Rain Rain
11:39 AM 51.8 °F 50.0 °F 94% 29.70 in 10.0 mi WSW 4.6 mph - 0.06 in   Overcast
12:00 PM 51.8 °F 48.2 °F 88% 29.70 in 10.0 mi SW 5.8 mph - 0.01 in   Overcast
12:19 PM 53.6 °F 48.2 °F 82% 29.69 in 10.0 mi WSW 8.1 mph - 0.01 in   Overcast
12:59 PM 53.6 °F 48.2 °F 82% 29.69 in 10.0 mi WSW 4.6 mph - N/A   Overcast
1:39 PM 55.4 °F 48.2 °F 77% 29.69 in 10.0 mi SW 5.8 mph - N/A   Mostly Cloudy
1:59 PM 55.4 °F 48.2 °F 77% 29.69 in 10.0 mi SW 4.6 mph - N/A   Overcast
2:21 PM 55.4 °F 48.2 °F 77% 29.69 in 10.0 mi SSW 4.6 mph - N/A   Overcast
2:39 PM 55.4 °F 48.2 °F 77% 29.69 in 10.0 mi South 5.8 mph - N/A   Overcast
2:59 PM 55.4 °F 48.2 °F 77% 29.69 in 10.0 mi South 4.6 mph - N/A   Mostly Cloudy
3:39 PM 55.4 °F 48.2 °F 77% 29.71 in 10.0 mi SSW 4.6 mph - N/A   Mostly Cloudy
3:59 PM 57.2 °F 48.2 °F 72% 29.73 in 10.0 mi WSW 6.9 mph - N/A   Overcast
4:40 PM 55.4 °F 48.2 °F 77% 29.74 in 10.0 mi WSW 4.6 mph - N/A   Overcast
5:00 PM 55.4 °F 48.2 °F 77% 29.75 in 10.0 mi WSW 4.6 mph - N/A   Overcast
5:39 PM 51.8 °F 48.2 °F 88% 29.77 in 10.0 mi Calm Calm - N/A   Overcast
5:59 PM 51.8 °F 50.0 °F 94% 29.77 in 10.0 mi Calm Calm - N/A   Overcast
6:19 PM 51.8 °F 50.0 °F 94% 29.78 in 10.0 mi Calm Calm - N/A   Overcast
6:39 PM 51.8 °F 48.2 °F 88% 29.78 in 10.0 mi Calm Calm - N/A   Overcast
6:59 PM 50.0 °F 48.2 °F 94% 29.80 in 10.0 mi Calm Calm - N/A   Overcast
7:21 PM 50.0 °F 48.2 °F 94% 29.80 in 10.0 mi Calm Calm - N/A   Overcast
7:39 PM 50.0 °F 48.2 °F 94% 29.81 in 10.0 mi Calm Calm - N/A   Overcast
7:59 PM 50.0 °F 48.2 °F 94% 29.81 in 7.0 mi Calm Calm - N/A   Overcast
8:21 PM 50.0 °F 48.2 °F 94% 29.82 in 10.0 mi Calm Calm - N/A   Overcast
8:40 PM 50.0 °F 48.2 °F 94% 29.83 in 7.0 mi Calm Calm - N/A   Overcast
8:59 PM 51.8 °F 50.0 °F 94% 29.84 in 10.0 mi Calm Calm - N/A   Overcast
9:23 PM 50.0 °F 48.2 °F 94% 29.83 in 7.0 mi Calm Calm - N/A   Overcast
9:42 PM 50.0 °F 48.2 °F 94% 29.82 in 7.0 mi Calm Calm - N/A   Overcast
10:02 PM 50.0 °F 48.2 °F 94% 29.83 in 7.0 mi Calm Calm - N/A   Overcast
10:19 PM 51.8 °F 48.2 °F 88% 29.83 in 10.0 mi Calm Calm - N/A   Overcast
10:41 PM 50.0 °F 48.2 °F 94% 29.84 in 5.0 mi Calm Calm - N/A   Overcast
10:59 PM 50.0 °F 48.2 °F 94% 29.84 in 7.0 mi Calm Calm - N/A   Overcast
11:19 PM 50.0 °F 48.2 °F 94% 29.84 in 7.0 mi Calm Calm - N/A   Overcast
11:40 PM 50.0 °F 48.2 °F 94% 29.84 in 7.0 mi Calm Calm - N/A   Overcast
11:59 PM 50.0 °F 48.2 °F 94% 29.84 in 4.0 mi Calm Calm - N/A Rain Rain